[[{"header":{"parameterUnit":"m.s-1","parameterCategory":1,"la1":30.2991,"la2":30.254,"lo1":-89.0895,"lo2":-89.0444,"dy":0.0017,"dx":0.0017,"nx":28,"ny":28,"refTime":"2025-12-30T09:00:00:Z","depth":0,"parameterNumber":2,"parameterNumberName":"U-component_of_WINDS"},"data":[0,0,0,0,0,0,0,0,0,0,0,0,0,0,0,0,0,0,0,0,0,0,0,0,0,0,0,0,0,0,0,0,0,0,0,0,0,0,0,0,0,0,0,0,0,0,0,0,0,0,0,0,0,0,0,0,0,0,1.9154,1.9154,0,1.916,1.916,1.916,1.9145,1.9145,1.9144,1.9144,1.9149,1.9149,1.915,0,0,0,0,0,0,0,0,0,0,0,0,0,1.9132,1.9133,1.9154,1.9154,1.9155,1.916,1.916,1.916,1.9145,1.9145,1.9144,1.9144,1.9148,1.9149,1.915,0,0,0,0,0,0,0,0,0,0,0,0,0,1.914,1.9133,1.9154,1.9148,1.9147,1.916,1.916,1.916,1.9146,1.9145,1.9144,1.9144,1.9148,1.9149,1.915,1.9168,0,0,1.9152,1.9153,0,0,0,0,0,0,0,0,1.914,1.9141,1.9149,1.9148,1.9148,1.9151,1.9154,1.9163,1.9146,1.9146,1.9144,1.9143,1.915,1.9151,1.9153,1.9168,1.9169,1.9152,1.9153,1.9153,1.9153,0,0,0,0,0,0,0,1.9139,1.9141,1.9156,1.9149,1.9148,1.9145,1.9145,1.9155,1.9152,1.9146,1.9145,1.9146,1.915,1.9152,1.9153,1.9169,1.9152,1.9153,1.9154,1.9154,1.92,1.9201,0,0,0,0,0,0,1.914,1.914,1.9156,1.9157,1.9142,1.9146,1.9146,1.9151,1.9152,1.9151,1.9147,1.9145,1.9151,1.9152,1.9153,1.9175,1.9153,1.9154,1.9154,1.9199,1.92,1.9201,0,0,0,0,0,0,1.9139,1.9141,1.9156,1.9148,1.915,1.9147,1.9152,1.9151,1.9154,1.9152,1.9151,1.915,1.9151,1.9152,1.9165,1.9175,1.9154,1.9155,1.9199,1.92,1.9201,1.9218,0,0,0,0,0,0,1.9139,1.9141,1.9148,1.9149,1.915,1.9167,1.9153,1.9152,1.9155,1.9154,1.9155,1.9154,1.915,1.9164,1.9166,1.9175,1.9156,1.9198,1.9199,1.92,1.9216,1.922,1.9222,0,0,0,0,0,1.9138,1.9152,1.9148,1.915,1.9159,1.9168,1.9169,1.9164,1.9156,1.9163,1.9162,1.9154,1.9174,1.9165,1.9167,1.9177,1.9197,1.9199,1.92,1.9215,1.9219,1.9222,0,0,0,0,0,0,1.9151,1.9152,1.9147,1.9162,1.9165,1.9166,1.9174,1.9168,1.9173,1.9171,1.9165,1.9166,1.918,1.918,1.917,1.9196,1.9184,1.9186,1.9195,1.9198,1.9201,1.92,1.9156,0,0,0,0,0,1.9156,1.9164,1.9164,1.9177,1.9179,1.9176,1.918,1.9177,1.9179,1.918,1.918,1.9183,1.919,1.9194,1.92,1.9217,1.9217,1.9225,1.9228,1.9231,1.9232,1.9241,1.9245,1.9207,1.9207,1.9207,0,0,1.9166,1.9167,1.9172,1.918,1.9182,1.919,1.9177,1.9186,1.9192,1.9181,1.9193,1.9194,1.9197,1.9212,1.9218,1.9212,1.9243,1.9233,1.9235,1.9235,1.9244,1.9247,1.925,1.9208,1.9208,1.9207,0,0,1.9188,1.919,1.9201,1.9204,1.9207,1.9206,1.9208,1.921,1.921,1.9222,1.9215,1.9222,1.9234,1.9236,1.9239,1.9264,1.9257,1.9267,1.9281,1.929,1.9293,1.9296,1.9304,1.9308,1.9268,1.9269,1.9269,0,1.9199,1.9211,1.9207,1.9217,1.9221,1.9213,1.9224,1.9227,1.9232,1.9235,1.9229,1.9244,1.9245,1.9261,1.9267,1.927,1.9273,1.9265,1.9293,1.9296,1.9298,1.9306,1.9309,1.927,1.9269,1.9269,1.9269,0,1.9225,1.9234,1.9242,1.9248,1.9253,1.9264,1.9262,1.9268,1.9264,1.9264,1.9277,1.9279,1.9285,1.9289,1.9285,1.9305,1.9301,1.9294,1.9282,1.9303,1.931,1.9313,1.9271,1.9271,1.927,1.927,0,0,1.9253,1.9258,1.9261,1.9264,1.9269,1.9275,1.9286,1.9294,1.9298,1.9303,1.9312,1.9323,1.9317,1.932,1.9317,1.9326,1.9346,1.9318,1.9318,1.9322,1.9367,1.9371,1.9375,1.9342,1.9343,1.9343,1.9366,0,1.9274,1.9292,1.929,1.9308,1.9316,1.931,1.932,1.9324,1.9324,1.9331,1.9332,1.9339,1.9331,1.9333,1.9341,1.9341,1.9354,1.934,1.935,1.935,1.9348,1.9379,1.9383,1.9405,1.9369,1.937,1.937,0,1.93,1.9306,1.9325,1.933,1.9333,1.9341,1.9348,1.9356,1.936,1.936,1.9365,1.9361,1.9372,1.9362,1.9377,1.9367,1.9372,1.9373,1.9373,1.9373,1.936,1.9378,1.9412,1.9415,1.9375,1.9375,1.9374,0,1.9318,1.9331,1.9344,1.9347,1.9353,1.9359,1.9362,1.9366,1.9371,1.9377,1.938,1.9388,1.9392,1.9398,1.9396,1.9389,1.9412,1.9401,1.9412,1.9412,1.9416,1.9415,1.9449,1.9421,1.9421,1.9421,1.9421,0,1.9341,1.9352,1.9353,1.9361,1.9374,1.9372,1.9385,1.9387,1.9391,1.94,1.9395,1.9403,1.9401,1.9409,1.9408,1.9421,1.9423,1.9423,1.9422,1.9423,1.9423,1.9424,1.9422,1.9422,1.9421,1.9421,1.9421,0,1.9362,1.9363,1.9376,1.9381,1.9383,1.9392,1.9396,1.9404,1.9405,1.9416,1.9418,1.942,1.9429,1.9429,1.9439,1.9439,1.9455,1.9453,1.9453,1.9452,1.9463,1.9461,1.9498,1.9503,1.9472,1.9472,1.9472,0,1.9375,1.9384,1.9391,1.9396,1.94,1.9409,1.9414,1.9413,1.9419,1.9426,1.9433,1.9443,1.945,1.9465,1.9467,1.9475,1.9473,1.9485,1.9474,1.9474,1.9472,1.9471,1.9472,1.9487,1.9487,1.9487,1.9488,0,1.94,1.94,1.9408,1.9417,1.9424,1.943,1.9437,1.9441,1.9442,1.9449,1.9458,1.9464,1.9476,1.9485,1.9493,1.9496,1.9492,1.9492,1.9494,1.9494,1.9494,1.9493,1.9458,1.949,1.949,1.949,1.949,1.949,1.9417,1.9425,1.9431,1.944,1.9445,1.9452,1.9459,1.9462,1.9471,1.948,1.948,1.9491,1.9497,1.9508,1.9511,1.952,1.9516,1.952,1.9521,1.9521,1.9522,1.9494,1.9522,1.9522,1.9522,1.9522,1.9522,0,1.944,1.9444,1.9453,1.9463,1.947,1.9468,1.9475,1.9481,1.9491,1.9497,1.9505,1.9517,1.9527,1.953,1.9539,1.9546,1.9544,1.9548,1.9547,1.9547,1.9526,1.9522,1.9549,1.9549,1.9549,1.9549,1.9549,1.9549,1.9453,1.9467,1.9468,1.9485,1.9489,1.95,1.9504,1.951,1.9515,1.9529,1.9537,1.954,1.9545,1.9555,1.9564,1.9565,1.9568,1.9572,1.9572,1.9552,1.9549,1.9546,1.9543,1.9573,1.9573,1.9593,1.9593,1.9593]},{"header":{"parameterUnit":"m.s-1","parameterCategory":1,"la1":30.2991,"la2":30.254,"lo1":-89.0895,"lo2":-89.0444,"dy":0.0017,"dx":0.0017,"nx":28,"ny":28,"refTime":"2025-12-30T09:00:00:Z","depth":0,"parameterNumber":3,"parameterNumberName":"V-component_of_WINDS"},"data":[0,0,0,0,0,0,0,0,0,0,0,0,0,0,0,0,0,0,0,0,0,0,0,0,0,0,0,0,0,0,0,0,0,0,0,0,0,0,0,0,0,0,0,0,0,0,0,0,0,0,0,0,0,0,0,0,0,0,-7.8364,-7.8367,0,-7.8562,-7.8565,-7.8567,-7.8498,-7.8493,-7.8489,-7.8485,-7.8682,-7.8691,-7.87,0,0,0,0,0,0,0,0,0,0,0,0,0,-7.7921,-7.7929,-7.8364,-7.8367,-7.8369,-7.8562,-7.8565,-7.8567,-7.8498,-7.8493,-7.8488,-7.8483,-7.8679,-7.869,-7.8701,0,0,0,0,0,0,0,0,0,0,0,0,0,-7.8115,-7.7932,-7.8364,-7.8358,-7.836,-7.8561,-7.8565,-7.8568,-7.85,-7.8493,-7.8486,-7.848,-7.8675,-7.8688,-7.8702,-7.892,0,0,-7.8745,-7.8751,0,0,0,0,0,0,0,0,-7.8104,-7.8132,-7.8357,-7.8359,-7.8361,-7.8499,-7.848,-7.8686,-7.8501,-7.8446,-7.8485,-7.8477,-7.8626,-7.8643,-7.8695,-7.8929,-7.8937,-7.8746,-7.8755,-7.8761,-7.8765,0,0,0,0,0,0,0,-7.8091,-7.8123,-7.8442,-7.836,-7.8363,-7.8344,-7.8364,-7.8519,-7.857,-7.8451,-7.8446,-7.8471,-7.8625,-7.8681,-7.8699,-7.894,-7.8746,-7.8758,-7.8767,-7.8772,-7.9362,-7.9369,0,0,0,0,0,0,-7.8077,-7.8112,-7.8436,-7.8448,-7.8214,-7.8357,-7.838,-7.8461,-7.8568,-7.8578,-7.8476,-7.8467,-7.8661,-7.8682,-7.8705,-7.8967,-7.876,-7.8774,-7.8782,-7.9355,-7.9364,-7.9372,0,0,0,0,0,0,-7.8068,-7.8107,-7.8428,-7.8279,-7.8319,-7.8372,-7.8463,-7.8468,-7.8524,-7.8588,-7.8596,-7.8524,-7.8656,-7.8686,-7.8867,-7.8973,-7.878,-7.8793,-7.9346,-7.9358,-7.9368,-7.9493,0,0,0,0,0,0,-7.8056,-7.8104,-7.8189,-7.8282,-7.8327,-7.8589,-7.847,-7.8477,-7.8549,-7.8539,-7.8635,-7.8644,-7.8653,-7.8847,-7.8881,-7.8989,-7.8804,-7.9337,-7.9351,-7.9364,-7.9479,-7.9506,-7.953,0,0,0,0,0,-7.804,-7.8214,-7.8193,-7.8233,-7.8434,-7.8595,-7.8621,-7.863,-7.8558,-7.8643,-7.8683,-7.8641,-7.8956,-7.8866,-7.8904,-7.9017,-7.933,-7.9347,-7.9363,-7.9468,-7.9501,-7.9529,0,0,0,0,0,0,-7.813,-7.8226,-7.8204,-7.8414,-7.8497,-7.8583,-7.869,-7.8664,-7.8768,-7.8754,-7.8758,-7.878,-7.8967,-7.901,-7.8908,-7.9233,-7.9132,-7.9157,-7.9199,-7.9231,-7.9255,-7.9241,-7.8815,0,0,0,0,0,-7.8175,-7.83,-7.8376,-7.8554,-7.8597,-7.8637,-7.8707,-7.8707,-7.8792,-7.8827,-7.888,-7.8963,-7.9081,-7.9158,-7.9269,-7.9485,-7.9504,-7.9581,-7.9607,-7.9627,-7.9648,-7.9765,-7.98,-7.9426,-7.9425,-7.9425,0,0,-7.8268,-7.8336,-7.8414,-7.8574,-7.8638,-7.8766,-7.8667,-7.8806,-7.89,-7.8847,-7.9023,-7.9065,-7.9157,-7.9357,-7.9448,-7.9399,-7.9756,-7.9648,-7.9664,-7.9674,-7.9786,-7.9821,-7.9853,-7.9437,-7.9435,-7.9433,0,0,-7.8503,-7.8567,-7.8723,-7.879,-7.8889,-7.8914,-7.8952,-7.9042,-7.9069,-7.9246,-7.9209,-7.9319,-7.9522,-7.959,-7.965,-7.9911,-7.9876,-7.9947,-8.0079,-8.0193,-8.0222,-8.0248,-8.0342,-8.0375,-7.9968,-7.9968,-7.9969,0,-7.8605,-7.8798,-7.8805,-7.8949,-7.9019,-7.8979,-7.9136,-7.92,-7.933,-7.9379,-7.9323,-7.9576,-7.9635,-7.985,-7.9914,-7.9965,-8.0007,-7.9936,-8.0218,-8.0244,-8.0269,-8.0357,-8.0392,-7.9976,-7.9975,-7.9975,-7.9974,0,-7.8919,-7.9053,-7.9166,-7.9296,-7.9379,-7.9528,-7.9557,-7.964,-7.9632,-7.9663,-7.9843,-7.9913,-8.0038,-8.0088,-8.0081,-8.0303,-8.0269,-8.0216,-8.0114,-8.0312,-8.0396,-8.043,-7.9988,-7.9985,-7.9983,-7.9981,0,0,-7.9217,-7.9349,-7.939,-7.9448,-7.9555,-7.9658,-7.9804,-7.9929,-8.0,-8.0091,-8.0213,-8.0385,-8.0337,-8.0406,-8.0406,-8.0506,-8.0708,-8.044,-8.0442,-8.0487,-8.0956,-8.0996,-8.1036,-8.0685,-8.0692,-8.0697,-8.0948,0,-7.946,-7.9721,-7.9731,-7.9967,-8.0091,-8.0055,-8.0182,-8.026,-8.0293,-8.0401,-8.0435,-8.0558,-8.0484,-8.0525,-8.0623,-8.0663,-8.0802,-8.0645,-8.0798,-8.0803,-8.0777,-8.1079,-8.1122,-8.1356,-8.0981,-8.0986,-8.099,0,-7.978,-7.9883,-8.0133,-8.0222,-8.0274,-8.0389,-8.0504,-8.0608,-8.0695,-8.0712,-8.079,-8.0775,-8.0923,-8.0817,-8.102,-8.0913,-8.0976,-8.1005,-8.1014,-8.1029,-8.0909,-8.1102,-8.1431,-8.1466,-8.1042,-8.1038,-8.1034,0,-7.9973,-8.0173,-8.0349,-8.0399,-8.0508,-8.059,-8.0638,-8.0719,-8.0794,-8.0893,-8.0941,-8.1056,-8.1119,-8.1207,-8.1223,-8.1144,-8.1427,-8.1322,-8.1444,-8.1443,-8.1505,-8.1501,-8.1849,-8.1545,-8.1545,-8.1544,-8.1543,0,-8.0244,-8.0398,-8.0437,-8.0545,-8.0715,-8.0726,-8.0894,-8.0936,-8.1009,-8.1123,-8.1097,-8.1204,-8.1219,-8.1329,-8.1342,-8.1508,-8.1537,-8.1553,-8.1555,-8.1556,-8.1554,-8.1597,-8.1582,-8.1553,-8.1551,-8.155,-8.1548,0,-8.0488,-8.0521,-8.0709,-8.0797,-8.0823,-8.0945,-8.1019,-8.1122,-8.1151,-8.1296,-8.133,-8.1376,-8.1505,-8.153,-8.1681,-8.1689,-8.1888,-8.1873,-8.1859,-8.1858,-8.1978,-8.1967,-8.2366,-8.2419,-8.2081,-8.2084,-8.2087,0,-8.066,-8.0778,-8.0879,-8.0955,-8.1008,-8.113,-8.1206,-8.122,-8.1299,-8.1408,-8.1497,-8.1624,-8.1725,-8.1932,-8.1978,-8.2093,-8.2081,-8.2213,-8.2098,-8.2095,-8.2083,-8.2076,-8.2088,-8.2235,-8.2238,-8.2241,-8.2244,0,-8.0961,-8.0971,-8.1083,-8.1201,-8.1293,-8.1386,-8.1474,-8.1537,-8.1562,-8.1653,-8.1786,-8.1865,-8.202,-8.2145,-8.2261,-8.2308,-8.2281,-8.228,-8.2314,-8.2317,-8.2304,-8.2313,-8.192,-8.2271,-8.2268,-8.2266,-8.2264,-8.2263,-8.1174,-8.1277,-8.1365,-8.149,-8.1559,-8.1642,-8.1743,-8.1786,-8.1897,-8.2026,-8.2027,-8.2171,-8.2255,-8.2407,-8.2462,-8.2574,-8.2532,-8.2582,-8.2594,-8.2607,-8.2618,-8.2286,-8.2595,-8.2594,-8.2593,-8.2593,-8.2592,0,-8.1474,-8.1529,-8.1644,-8.177,-8.1868,-8.1835,-8.1931,-8.2015,-8.2143,-8.2225,-8.2326,-8.2478,-8.2599,-8.2655,-8.2774,-8.2853,-8.2843,-8.2884,-8.2878,-8.2889,-8.2649,-8.2607,-8.289,-8.2889,-8.2889,-8.2889,-8.2889,-8.2889,-8.1642,-8.1815,-8.1836,-8.2042,-8.2095,-8.2238,-8.2296,-8.2372,-8.2437,-8.2608,-8.271,-8.2746,-8.2817,-8.2941,-8.305,-8.3063,-8.3108,-8.3155,-8.3162,-8.2936,-8.2906,-8.2877,-8.2839,-8.3165,-8.3165,-8.3393,-8.3395,-8.3397]}]]